Location: Lane
(33.5226°N, 79.8788°W)
Time: 02:55:13
(UTC+00:00)

SR - Pass Details

Date: 30 September 2022
Orbit: 577 x 875 km, 66.7° (Epoch: 29 November)

Event Time Altitude Azimuth Distance (km) Brightness Sun altitude
Rises 11:05:26 0° 346° (NNW) 3,308 ? -2.4°
Reaches altitude 10° 11:08:23 10° 359° (N) 2,323 ? -1.8°
Maximum altitude 11:12:39 24° 53° (NE) 1,482 ? -0.9°
Drops below altitude 10° 11:16:39 10° 108° (ESE) 2,151 ? -0.1°
Sets 11:19:15 0° 122° (ESE) 3,009 ? 0.4°
